Location: Valdosta
(30.8330°N, 83.2790°W)
Time: 16:01:31
(UTC-04:00)

Star 48 S/N 10029-3 - Visible Passes

Search period start: 24 July 2014 00:00
Search period end: 03 August 2014 00:00
Orbit: 235 x 356 km, 27.6° (Epoch: 24 July)

Date Brightness Start Highest point End Pass type
(mag) Time Alt. Az. Time Alt. Az. Time Alt. Az.
24 Jul 4.2 21:47:01 10° WSW 21:49:49 43° S 21:50:11 40° SSE visible
25 Jul 4.5 21:52:47 10° WSW 21:55:34 38° S 21:55:35 38° S visible
26 Jul 5.1 21:58:35 10° WSW 22:00:54 29° SSW 22:00:54 29° SSW visible
27 Jul 5.9 22:04:29 10° WSW 22:06:08 19° SW 22:06:08 19° SW visible
28 Jul 6.6 22:10:41 10° SW 22:11:18 12° SW 22:11:18 12° SW visible
31 Jul 6.6 20:52:27 10° SW 20:53:14 11° SSW 20:54:02 10° S visible
